STARLINK-31302

decayed
NORAD ID: 59094 Int'l Des: 2024-041 Owner: SPXS Country: US Constellation: starlink
LEOCIRCULAR
Group

About STARLINK-31302

Description loading...

Altitude History

Altitude vs Time

uPlot chart will show altitude changes over time

Two-Line Element Set

1 59094U 24041W 24243.85429248 .17358695 91321-5 19845-2 0 9999
2 59094 42.9610 125.8017 0010236 242.9238 170.6300 16.35694234 30112
Epoch: Aug 30, 2024 • Age: 9137 hours

Current Status

Position data unavailable
Launch Date Feb 29, 2024
Age 1.5 years
Decay Date Aug 30, 2024
Type internet

Technical Details

Classification Payload
Mass 730.00 kg
Dry Mass 700.00 kg
Total Mass 730.00 kg
Length 0.30 m
Diameter 4.10 m
Span 29.00 m
Shape Box + pan
Manufacturer SPXS
Bus Type Starlink V2M
Phase Status Unknown Transfer Status
Owner/State SPXS/US

Large Constellations

Loading constellations...